Retour au catalogue

FENGYUN 1C DEB

ActifSSO
NORAD 36153·DEBRIS·🇨🇳 China

Lancé May 10, 1999 depuis Taiyuan Satellite Launch Center

Loading…

Prochains Passages (prochaines 24 heures)

TLE

VieillissantSource: Space-Track

Époque: Sep 8, 2026, 12:32 UTC

1 36153U 99025DSA 26251.52265159  .00004715  00000-0  11386-2 0  9992
2 36153  98.5923 352.7116 0028453 307.8374  52.0247 14.53378407688784

Suivez FENGYUN 1C DEB en temps réel avec AllMySat

Download on the App Store